This is the latest recevied weather packets stored in our database for station/object DL9NEE-10. If no packets are shown the sender has not sent any weather packets the latest 10 day(s).
| Time | Temp. | Humidity | Pressure | Rain* | Wind** | Luminosity | Snow |
|---|---|---|---|---|---|---|---|
| 1778070289 | 24.44° C | 45% | 1007.5 hPa | - | - | - | - |
| 1778069389 | 25° C | 44% | 1007.7 hPa | - | - | - | - |
| 1778068489 | 26.67° C | 45% | 1007.8 hPa | - | - | - | - |
| 1778067589 | 25° C | 45% | 1007.9 hPa | - | - | - | - |
| 1778066688 | 27.22° C | 43% | 1007.9 hPa | - | - | - | - |
| 1778065788 | 26.67° C | 49% | 1008.2 hPa | - | - | - | - |
| 1778064888 | 23.33° C | 51% | 1008.3 hPa | - | - | - | - |
| 1778063988 | 21.11° C | 53% | 1008.5 hPa | - | - | - | - |
| 1778063088 | 21.11° C | 53% | 1008.5 hPa | - | - | - | - |
| 1778062188 | 20.56° C | 53% | 1008.6 hPa | - | - | - | - |
| 1778061288 | 20.56° C | 54% | 1008.5 hPa | - | - | - | - |
| 1778060387 | 19.44° C | 57% | 1008.5 hPa | - | - | - | - |
| 1778059487 | 19.44° C | 57% | 1008.7 hPa | - | - | - | - |
| 1778058587 | 18.89° C | 58% | 1008.7 hPa | - | - | - | - |
| 1778057687 | 18.89° C | 60% | 1008.6 hPa | - | - | - | - |
| 1778056787 | 18.89° C | 62% | 1008.7 hPa | - | - | - | - |
| 1778055887 | 17.78° C | 62% | 1008.9 hPa | - | - | - | - |
| 1778054987 | 17.78° C | 64% | 1008.9 hPa | - | - | - | - |
| 1778054086 | 17.22° C | 64% | 1008.8 hPa | - | - | - | - |
| 1778053186 | 16.67° C | 66% | 1008.6 hPa | - | - | - | - |
| 1778052286 | 16.11° C | 67% | 1008.7 hPa | - | - | - | - |
| 1778051386 | 16.11° C | 69% | 1008.7 hPa | - | - | - | - |
| 1778050486 | 15.56° C | 69% | 1008.6 hPa | - | - | - | - |
| 1778049586 | 15° C | 70% | 1008.6 hPa | - | - | - | - |
| 1778048686 | 14.44° C | 71% | 1008.5 hPa | - | - | - | - |
* Rain since midnight (hover to see other rain measurements)
** Current wind speed in m/s (hover to see current wind gust speed)